Weather History for LIVP - October, 2012

Change the Weather History Date:

Monday, October 15, 2012

  Actual Average Record
Temperature  
Mean Temperature 31 °F -  
Max Temperature 36 °F 38 °F 53 °F (2001)
Min Temperature 26 °F 30 °F 23 °F (1997)
Degree Days  
Heating Degree Days 34    
Moisture  
Dew Point 31 °F    
Average Humidity 100    
Maximum Humidity 100    
Minimum Humidity 100    
Precipitation  
Precipitation 0.55 in 0.08 in - ()
Sea Level Pressure  
Sea Level Pressure 29.63 in    
Wind  
Wind Speed 18 mph ()    
Max Wind Speed 26 mph    
Max Gust Speed 40 mph    
Visibility 0.0 miles    
Events Fog , Rain , Snow    
Averages and records for this station are not official NWS values.
T = Trace of Precipitation, MM = Missing Value Source: Averaged Metar Reports

Daily Weather History Graph

Daily Weather History Graph

Search for Another Location

Airport or City:

Trip Planner

Search our weather history database for the weather conditions in past years. The results will help you decide how hot, cold, wet, or windy it might be!

Date:

Astronomy

Oct. 15, 2012 Rise Set
Actual Time 7:33 AM CEST 6:29 PM CEST
Civil Twilight 7:02 AM CEST 6:59 PM CEST
Nautical Twilight 6:28 AM CEST 7:34 PM CEST
Astronomical Twilight 5:53 AM CEST 8:08 PM CEST
Moon 7:25 AM CEST (10/15) 6:13 PM CEST (10/15)
Length of Visible Light 11h 56m
Length of Day
10h 55m
Waning Crescent, 0% of the Moon is Illuminated
Oct 15
Waning Crescent
Oct 15
New
Oct 22
First Quarter
Oct 29
Full
Nov 7
Last Quarter

Hourly Weather History & Observations

Time (CEST) Temp. Windchill Dew Point Humidity Pressure Visibility Wind Dir Wind Speed Gust Speed Precip Events Conditions
12:55 AM 35.6 °F 24.5 °F 35.6 °F 100% 29.68 in 0.0 mi South 20.7 mph 32.2 mph N/A Fog , Rain Light Rain
1:55 AM 33.8 °F 21.9 °F 33.8 °F 100% 29.68 in 0.0 mi South 21.9 mph 35.7 mph N/A Fog , Rain Light Rain
2:00 AM 34 °F - 34 °F 100%  in 0 mi South 21.9 mph - - Rain Light Rain
2:55 AM 32.0 °F 18.4 °F 32.0 °F 100% 29.65 in 0.0 mi South 26.5 mph 40.3 mph N/A Fog , Rain , Snow Light Rain
3:55 AM 32.0 °F 19.5 °F 32.0 °F 100% 29.65 in - South 21.9 mph 33.4 mph N/A Fog Fog
4:55 AM 32.0 °F 21.2 °F 32.0 °F 100% 29.62 in - South 16.1 mph 28.8 mph N/A Fog Fog
5:00 AM 32 °F - 32 °F 100%  in 0 mi South 16.1 mph - - Snow Light Snow
5:55 AM 32.0 °F 20.5 °F 32.0 °F 100% 29.65 in - South 18.4 mph - N/A Fog Fog
6:55 AM 32.0 °F 20.5 °F 32.0 °F 100% 29.62 in - South 18.4 mph - N/A Fog Light Freezing Fog
7:55 AM 32.0 °F 20.8 °F 32.0 °F 100% 29.59 in 0.0 mi SSE 17.3 mph - N/A Fog , Rain , Snow Light Rain
8:55 AM 33.8 °F 22.8 °F 33.8 °F 100% 29.59 in 0.0 mi SSE 18.4 mph - N/A Fog , Rain Light Rain
9:55 AM 33.8 °F 22.2 °F 33.8 °F 100% 29.59 in 0.0 mi South 20.7 mph - N/A Fog , Rain Light Rain
10:55 AM 35.6 °F 24.0 °F 35.6 °F 100% 29.62 in 0.0 mi South 23.0 mph 35.7 mph N/A Fog , Rain Light Rain
11:55 AM 33.8 °F 21.6 °F 33.8 °F 100% 29.59 in 0.0 mi SSW 23.0 mph - N/A Fog , Rain Light Rain
12:55 PM 33.8 °F 21.6 °F 33.8 °F 100% 29.59 in 0.0 mi South 23.0 mph 34.5 mph N/A Fog , Rain Light Rain
1:55 PM 33.8 °F 21.0 °F 33.8 °F 100% 29.59 in 0.0 mi SSW 25.3 mph 39.1 mph N/A Fog , Rain , Snow Light Rain
2:00 PM 33 °F - 33 °F 100%  in 0 mi SSW 25.3 mph - - Snow Light Snow
2:55 PM 33.8 °F 24.8 °F 33.8 °F 100% 29.59 in 0.0 mi South 12.7 mph - N/A Fog , Rain , Snow Light Rain
3:55 PM 33.8 °F 26.4 °F 33.8 °F 100% 29.59 in 0.0 mi East 9.2 mph - N/A Fog , Rain Light Rain
4:55 PM 30.2 °F 18.5 °F 30.2 °F 100% 29.59 in - North 17.3 mph - N/A Fog Light Freezing Fog
5:55 PM 28.4 °F 16.2 °F 28.4 °F 100% 29.62 in - NNW 17.3 mph 28.8 mph N/A Fog Light Freezing Fog
6:55 PM 28.4 °F 13.8 °F 28.4 °F 100% 29.62 in - North 25.3 mph 36.8 mph N/A Fog Light Freezing Fog
7:55 PM 26.6 °F 11.7 °F 26.6 °F 100% 29.62 in - South 24.2 mph - N/A Fog Light Freezing Fog
8:00 PM 27 °F - 27 °F 100%  in 0 mi South 24.2 mph - - Snow Light Snow
8:55 PM 26.6 °F 12.7 °F 26.6 °F 100% 29.68 in - North 20.7 mph 32.2 mph N/A Fog Light Freezing Fog
9:55 PM 26.6 °F 12.7 °F 26.6 °F 100% 29.68 in - North 20.7 mph - N/A Fog Light Freezing Fog
10:55 PM 28.4 °F 15.8 °F 28.4 °F 100% 29.68 in - North 18.4 mph - N/A Fog Light Freezing Fog
11:00 PM 28 °F - 28 °F 100%  in 0 mi North 18.4 mph - - Snow Light Snow
11:55 PM 28.4 °F 14.4 °F 28.4 °F 100% 29.68 in - North 23.0 mph - N/A Fog Light Freezing Fog